Flag for Canada

Past Weather in Hamilton, Ontario, Canada — Yesterday and Last 2 Weeks

Now
81 °F

Passing clouds.


Feels Like: 85 °F
Forecast: 89 / 73 °F
Wind: 3 mph from Southeast

Location: Hamilton Airport

Current Time: Jul 9, 2020 at 9:35:25 am

Latest Report: Jul 9, 2020 at 9:00 am


Visibility: 15 mi

Pressure: 29.96 "Hg

Humidity: 74%

Dew Point: 72 °F

Location of HamiltonLocation

Past Weather in Hamilton — Graph

°F

Hamilton Temperature Yesterday

Maximum temperature yesterday: 91 °F (at 3:00 pm)
Minimum temperature yesterday: 72 °F (at 4:00 am)
Average temperature yesterday: 78 °F

High & Low Weather Summary for the Past Weeks

 TemperatureHumidityPressure
High91 °F (Jul 7, 4:00 pm)100% (Jun 25, 3:00 am)30.04 "Hg (Jun 25, 3:00 am)
Low52 °F (Jun 25, 5:00 am)24% (Jul 4, 4:00 pm)29.69 "Hg (Jun 24, 8:00 am)
Average74 °F68%29.92 "Hg
* Reported Jun 24 8:00 am — Jul 9 8:00 am, Hamilton. Weather by CustomWeather, © 2020

Note: Actual official high and low records may vary slightly from our data, if they occured in-between our weather recording intervals... More about our weather records

Hamilton Weather History for the Previous 24 Hours

Scroll right to see more
 ConditionsComfort  
Time TempWeatherWind HumidityBarometerVisibility
8:00 am
Thu, Jul 9
77 °FPassing clouds.3 mph79%29.96 "Hg15 mi
7:00 am70 °FPassing clouds.2 mph100%29.95 "Hg15 mi
6:00 am70 °FFog.2 mph94%29.93 "Hg12 mi
5:45 am70 °FFog.3 mph100%29.93 "Hg3 mi
5:28 am68 °FFog.2 mph100%29.93 "Hg2 mi
5:00 am70 °FFog.3 mph100%29.92 "Hg12 mi
4:00 am70 °FFog.3 mph100%29.91 "Hg10 mi
3:00 am72 °FPassing clouds.2 mph94%29.91 "Hg15 mi
2:00 am73 °FPassing clouds.No wind89%29.91 "Hg15 mi
1:00 am73 °FPassing clouds.5 mph89%29.92 "Hg15 mi
12:00 am73 °FPassing clouds.3 mph94%29.93 "Hg15 mi
11:00 pm
Wed, Jul 8
75 °FPassing clouds.6 mph89%29.92 "Hg15 mi
10:00 pm75 °FPassing clouds.7 mph89%29.91 "Hg15 mi
9:00 pm79 °FPassing clouds.7 mph79%29.89 "Hg15 mi
8:00 pm82 °FScattered clouds.5 mph70%29.88 "Hg15 mi
7:00 pm84 °FBroken clouds.8 mph70%29.88 "Hg15 mi
6:00 pm86 °FBroken clouds.2 mph55%29.90 "Hg15 mi
5:00 pm79 °FBroken clouds.17 mph74%29.92 "Hg15 mi
4:47 pm75 °FBroken clouds.10 mph89%29.91 "Hg15 mi
4:27 pm75 °FThunderstorms. Partly sunny.14 mph74%29.91 "Hg8 mi
4:06 pm82 °FThunderstorms. Partly sunny.20 mph62%29.92 "Hg10 mi
3:00 pm91 °FPartly sunny.7 mph49%29.90 "Hg15 mi
2:00 pm88 °FBroken clouds.9 mph55%29.93 "Hg15 mi
1:00 pm88 °FScattered clouds.10 mph59%29.95 "Hg15 mi
12:00 pm86 °FScattered clouds.7 mph62%29.96 "Hg15 mi
11:00 am82 °FScattered clouds.8 mph74%29.95 "Hg15 mi
10:00 am79 °FScattered clouds.9 mph84%29.95 "Hg12 mi
9:38 am79 °FBroken clouds.10 mph79%29.96 "Hg8 mi
9:00 am75 °FFog.9 mph94%29.97 "Hg6 mi
Weather by CustomWeather, © 2020

See weather overview